Regional Weather Roundup
Issued by NWS

Home | Current Version | Previous Version | Graphics & Text | Print | Product List | Glossary Off
Versions: 1 2 3 4 5 6 7 8 9 10 11 12 13 14 15 16 17 18 19 20 21 22 23 24 25 26 27 28 29 30 31 32 33 34 35 36 37 38 39 40 41 42 43 44 45 46 47 48 49

000
ASUS43 KDMX 291307
RWRIA

WEATHER ROUNDUP FOR IOWA
NATIONAL WEATHER SERVICE DES MOINES IA
800 AM CDT WED JUL 29 2015

NOTE: "FAIR" INDICATES FEW OR NO CLOUDS BELOW 12,000 FEET WITH NO
SIGNIFICANT WEATHER AND/OR OBSTRUCTIONS TO VISIBILITY.

* - THESE STATIONS ARE NOT NWS STATIONS...THUS NOT UNDER NWS
QUALITY CONTROL.  THEY ALSO DO NOT REPORT WEATHER SUCH
AS PRECIPITATION OR FOG.

IAZ001>003-012>014-020>022-031>034-043>046-291400-
   NORTHWEST IOWA

CITY           SKY/WX    TMP DP  RH WIND       PRES   REMARKS
CARROLL *      SUNNY     66  63  88 W3        30.13R
CHEROKEE *     SUNNY     59  59 100 S5        30.13S
DENISON *      SUNNY     61  61 100 CALM      30.13R
LE MARS *      SUNNY     61  57  88 CALM      30.14S
ORANGE CITY *  SUNNY     61  54  77 CALM      30.13S
SHELDON *      SUNNY     63  55  77 SW6       30.11R
SIOUX CITY     SUNNY     64  57  78 W3        30.14R
SPENCER        SUNNY     63  55  75 SW8       30.10S
STORM LAKE *   SUNNY     64  59  82 W7        30.14S
$$

IAZ055>058-069>071-079>083-090>094-291400-
   SOUTHWEST IOWA

CITY           SKY/WX    TMP DP  RH WIND       PRES   REMARKS
ATLANTIC *     SUNNY     66  63  88 CALM      30.15R
AUDUBON *      SUNNY     66  63  88 CALM      30.15R
CLARINDA *     SUNNY     70  70 100 CALM      30.15R
COUNCIL BLFS * SUNNY     68  64  88 CALM      30.16R
CRESTON *      MOSUNNY   72  70  94 W5        30.13R
HARLAN  *      SUNNY     64  64 100 CALM      30.18R
LAMONI           N/A     74  71  91 W7        30.11R
RED OAK *      SUNNY     70  66  88 CALM      30.15R
SHENANDOAH *   SUNNY     70  66  88 CALM      30.16R
$$

IAZ047>049-059>061-072>074-084-291400-
   CENTRAL IOWA

CITY           SKY/WX    TMP DP  RH WIND       PRES   REMARKS
AMES           SUNNY     69  63  81 NW6       30.09S
ANKENY *       SUNNY     72  63  73 NW7       30.09R
CHARITON *     PTSUNNY   73  70  88 NW7       30.09R
DES MOINES     PTSUNNY   72  62  71 N10       30.09R
GRINNELL*      MOSUNNY   70  64  83 NW7       30.08S
KNOXVILLE *    PTSUNNY   72  68  88 NW9       30.07R
MARSHALLTOWN     N/A     68  63  84 NW8       30.07R
PELLA *        MOSUNNY   73  70  88 NW9       30.08R
PERRY *          N/A     46  43  87 W6        30.11R
$$

IAZ004>006-015-016-023>025-035-036-291400-
   NORTH CENTRAL IOWA

CITY           SKY/WX    TMP DP  RH WIND       PRES   REMARKS
ALGONA *       SUNNY     64  57  77 W8        30.10R
CLARION *      SUNNY     64  59  82 W8        30.09R
ESTHERVILLE    SUNNY     61  56  83 SW6       30.08S
FORT DODGE *   SUNNY     64  57  77 CALM      30.11R
MASON CITY     SUNNY     67  55  65 W13       30.08R
FOREST CITY *  SUNNY     63  55  77 W7        30.07S
IOWA FALLS *     N/A     66  61  82 W6        30.09S
$$

IAZ007>011-017>019-026>030-037>042-050>054-066-291400-
   NORTHEAST IOWA

CITY           SKY/WX    TMP DP  RH WIND       PRES   REMARKS
CEDAR RAPIDS   CLOUDY    68  67  96 NW7       30.03F
CHARLES CITY * SUNNY     66  61  82 W8        30.06R
CLINTON *      CLOUDY    73  70  88 NW6       30.03S
DECORAH *      SUNNY     68  59  73 VRB5      30.02S
DUBUQUE        CLOUDY    71  62  73 NW9       30.03R
MONTICELLO *   SUNNY     72  68  88 NW5       30.03S
OELWEIN *        N/A     66  63  88 W3        30.06R
WATERLOO       MOSUNNY   70  61  73 NW7       30.04S
$$

IAZ064-065-067-068-078-291400-
   EAST CENTRAL IOWA

CITY           SKY/WX    TMP DP  RH WIND       PRES   REMARKS
DAVENPORT      CLOUDY    73  70  90 NW6       30.02R
IOWA CITY      CLOUDY    72  67  84 NW7       30.04R
MT. PLEASANT * CLOUDY    73  70  88 NW5       30.04S
MUSCATINE *    SUNNY     73  70  88 NW7       30.03R
QUAD CITIES    CLOUDY    76  70  82 NW6       30.01R
$$

IAZ062-063-075>077-085>089-095>099-291400-
   SOUTHEAST IOWA

CITY           SKY/WX    TMP DP  RH WIND       PRES   REMARKS
BURLINGTON     CLOUDY    73  72  96 NW7       30.04R
FAIRFIELD *    SUNNY     72  70  94 NW5       30.06R
FORT MADISON * CLOUDY    72  72 100 NW7       30.04R
KEOKUK *       MOSUNNY   73  72  94 N6        30.02S
OSKALOOSA *      N/A     70  68  94 CALM      30.07R
CENTERVILLE *  SUNNY     72  70  94 NW7       30.08F
OTTUMWA          N/A     71  70  96 NW7       30.05R
WASHINGTON *   SUNNY     72  70  94 NW5       30.06R
$$

ABBREVIATIONS USED IN REMARKS
   TC - TEMPERATURES IN CELSIUS
  WCI - WIND CHILL INDEX
   HX - HEAT INDEX
  VSB - VISIBILITY
$$



USA.gov is the U.S. government's official web portal to all federal, state and local government web resources and services.